Terminal Aerodrome Forecast
Issued by NWS Pittsburgh, PA

Current Version | Previous Version | Graphics & Text | Print | Product List | Glossary On
Versions: 1 2 3 4 5 6 7 8 9 10 11 12 13 14 15 16 17 18 19 20 21 22 23 24 25 26 27 28 29 30 31 32 33 34 35 36 37 38 39
000
FTUS41 KPBZ 252300
TAFPIT
TAF
KPIT 252320Z 2600/2706 33005KT P6SM BKN200
     FM261200 01004KT 5SM -SN OVC035
     FM261400 02005KT 2SM -SN BR OVC015
     FM262100 VRB03KT P6SM OVC015=

USA.gov is the U.S. government's official web portal to all federal, state and local government web resources and services.